WBANNO,USDM_WEEK,LONGITUDE,LATITUDE,SMVWC_5_CM_MEAN,SMANOM_5_CM_MEAN,SMPERC_5_CM_30COUNTS,SMPERC_5_CM_70COUNTS,SMVWC_10_CM_MEAN,SMANOM_10_CM_MEAN,SMPERC_10_CM_30COUNTS,SMPERC_10_CM_70COUNTS,SMVWC_20_CM_MEAN,SMANOM_20_CM_MEAN,SMPERC_20_CM_30COUNTS,SMPERC_20_CM_70COUNTS,SMVWC_50_CM_MEAN,SMANOM_50_CM_MEAN,SMPERC_50_CM_30COUNTS,SMPERC_50_CM_70COUNTS,SMVWC_100_CM_MEAN,SMANOM_100_CM_MEAN,SMPERC_100_CM_30COUNTS,SMPERC_100_CM_70COUNTS,SMVWC_TOP_CM_MEAN,SMANOM_TOP_CM_MEAN,SMPERC_TOP_CM_30COUNTS,SMPERC_TOP_CM_70COUNTS,SMVWC_COLUMN_CM_MEAN,SMANOM_COLUMN_CM_MEAN,SMPERC_COLUMN_CM_30COUNTS,SMPERC_COLUMN_CM_70COUNTS
94088,20110720,-104.44,44.52,,,,,,,,,,,,,,,,,,,,,,,,,,,,
94088,20110721,-104.44,44.52,,,,,,,,,,,,,,,,,,,,,,,,,,,,
94088,20110722,-104.44,44.52,,,,,,,,,,,,,,,,,,,,,,,,,,,,
94088,20110723,-104.44,44.52,,,,,,,,,,,,,,,,,,,,,,,,,,,,
94088,20110724,-104.44,44.52,,,,,,,,,,,,,,,,,,,,,,,,,,,,
94088,20110725,-104.44,44.52,,,,,,,,,,,,,,,,,,,,,,,,,,,,
94088,20110726,-104.44,44.52,0.16,0.15,0,0,0.22,0.05,0,0,0.23,0.55,0,1,0.311,0.05,0,0,0.429,0.08,0,0,0.19,0.08,0,0,0.27,0.16,0,0
94088,20110727,-104.44,44.52,0.158,0.15,0,0,0.217,0.04,0,0,0.228,0.53,0,0.929,0.312,0.06,0,0,0.43,0.1,0,0,0.188,0.07,0,0,0.269,0.16,0,0
94088,20110728,-104.44,44.52,0.157,0.14,0,0,0.214,0.02,0,0,0.226,0.51,0,0.792,0.312,0.08,0,0,0.431,0.13,0,0,0.186,0.06,0,0,0.268,0.15,0,0
94088,20110729,-104.44,44.52,0.156,0.13,0,0,0.211,0,0,0,0.225,0.49,0,0.649,0.313,0.1,0,0,0.432,0.14,0,0,0.183,0.05,0,0,0.267,0.14,0,0
94088,20110730,-104.44,44.52,0.154,0.12,0,0,0.207,-0.02,0,0,0.222,0.47,0,0.506,0.313,0.12,0,0,0.432,0.15,0,0,0.181,0.04,0,0,0.266,0.13,0,0
94088,20110731,-104.44,44.52,0.153,0.11,0,0,0.204,-0.04,0,0,0.22,0.44,0,0.363,0.313,0.14,0,0,0.432,0.14,0,0,0.178,0.01,0,0,0.264,0.11,0,0
94088,20110801,-104.44,44.52,0.151,0.09,0,0,0.2,-0.07,0,0,0.218,0.41,0,0.22,0.313,0.16,0,0,0.431,0.12,0,0,0.175,-0.01,0,0,0.263,0.09,0,0
94088,20110802,-104.44,44.52,0.149,0.07,0,0,0.196,-0.1,0,0,0.215,0.38,0,0.077,0.313,0.17,0,0,0.43,0.11,0,0.012,0.172,-0.04,0,0,0.261,0.07,0,0
94088,20110803,-104.44,44.52,0.146,0.05,0,0,0.192,-0.13,0.012,0,0.212,0.34,0,0.006,0.314,0.18,0,0,0.431,0.12,0,0.101,0.169,-0.07,0,0,0.259,0.04,0,0
94088,20110804,-104.44,44.52,0.144,0.02,0,0,0.188,-0.17,0.083,0,0.209,0.3,0,0,0.314,0.18,0,0,0.431,0.12,0,0.101,0.166,-0.1,0,0,0.257,0.01,0,0
94088,20110805,-104.44,44.52,0.141,-0.01,0,0,0.184,-0.19,0.202,0,0.206,0.25,0,0,0.313,0.17,0,0,0.431,0.13,0,0.107,0.163,-0.12,0,0,0.255,-0.02,0,0
94088,20110806,-104.44,44.52,0.138,-0.03,0,0,0.18,-0.22,0.345,0,0.202,0.21,0,0,0.313,0.16,0,0,0.431,0.14,0,0.107,0.159,-0.15,0,0,0.253,-0.04,0,0
94088,20110807,-104.44,44.52,0.135,-0.07,0,0,0.177,-0.24,0.488,0,0.199,0.17,0,0,0.313,0.14,0,0,0.432,0.15,0,0.107,0.156,-0.18,0.113,0,0.251,-0.07,0,0
94088,20110808,-104.44,44.52,0.132,-0.1,0,0,0.173,-0.26,0.631,0,0.196,0.13,0,0,0.313,0.13,0,0,0.432,0.17,0,0.107,0.153,-0.2,0.256,0,0.249,-0.09,0,0
94088,20110809,-104.44,44.52,0.129,-0.12,0,0,0.17,-0.27,0.774,0,0.193,0.1,0,0,0.312,0.11,0,0,0.433,0.17,0,0.095,0.15,-0.22,0.387,0,0.247,-0.11,0,0
94088,20110810,-104.44,44.52,0.127,-0.15,0,0,0.167,-0.27,0.905,0,0.19,0.08,0,0,0.312,0.1,0,0,0.432,0.16,0,0.012,0.147,-0.23,0.512,0,0.246,-0.13,0,0
94088,20110811,-104.44,44.52,0.124,-0.16,0,0,0.164,-0.27,0.911,0,0.188,0.05,0,0,0.311,0.09,0,0,0.432,0.17,0,0.024,0.144,-0.24,0.53,0,0.244,-0.15,0,0
94088,20110812,-104.44,44.52,0.122,-0.18,0,0,0.162,-0.27,0.821,0,0.185,0.03,0,0,0.311,0.08,0,0,0.432,0.16,0,0.018,0.142,-0.25,0.53,0,0.242,-0.15,0,0
94088,20110813,-104.44,44.52,0.12,-0.19,0,0,0.159,-0.26,0.679,0,0.183,0.02,0,0,0.31,0.07,0,0,0.432,0.16,0,0.018,0.14,-0.25,0.53,0,0.241,-0.16,0,0
94088,20110814,-104.44,44.52,0.118,-0.19,0,0,0.157,-0.25,0.536,0,0.181,0,0,0,0.309,0.08,0,0,0.432,0.15,0,0.018,0.138,-0.24,0.417,0,0.239,-0.15,0,0
94088,20110815,-104.44,44.52,0.116,-0.18,0,0,0.155,-0.24,0.393,0,0.179,-0.01,0,0,0.309,0.09,0,0,0.431,0.15,0,0.018,0.136,-0.24,0.274,0,0.238,-0.14,0,0
94088,20110816,-104.44,44.52,0.115,-0.18,0,0,0.153,-0.23,0.256,0,0.177,-0.02,0,0,0.309,0.1,0,0,0.431,0.14,0,0.018,0.134,-0.23,0.143,0,0.237,-0.13,0,0
94088,20110817,-104.44,44.52,0.113,-0.18,0,0,0.152,-0.22,0.113,0,0.175,-0.02,0,0,0.308,0.11,0,0,0.43,0.13,0,0.012,0.132,-0.22,0.018,0,0.236,-0.12,0,0
94088,20110818,-104.44,44.52,0.111,-0.17,0,0,0.149,-0.22,0.036,0,0.173,-0.03,0,0,0.308,0.14,0,0,0.43,0.13,0,0.006,0.13,-0.22,0,0,0.234,-0.12,0,0
94088,20110819,-104.44,44.52,0.109,-0.18,0,0,0.147,-0.22,0.012,0,0.171,-0.03,0,0,0.307,0.16,0,0,0.43,0.13,0,0.006,0.128,-0.22,0.006,0,0.233,-0.11,0,0
94088,20110820,-104.44,44.52,0.107,-0.18,0,0,0.145,-0.22,0.012,0,0.169,-0.04,0,0,0.307,0.18,0,0,0.43,0.14,0,0.006,0.126,-0.23,0.006,0,0.232,-0.11,0,0
94088,20110821,-104.44,44.52,0.106,-0.18,0,0,0.143,-0.22,0.024,0,0.167,-0.04,0,0,0.307,0.19,0,0,0.429,0.14,0,0.012,0.124,-0.23,0.006,0,0.23,-0.11,0,0
94088,20110822,-104.44,44.52,0.104,-0.18,0,0,0.141,-0.22,0.03,0,0.165,-0.05,0,0,0.306,0.21,0,0,0.429,0.15,0,0.018,0.122,-0.23,0.006,0,0.229,-0.11,0,0
94088,20110823,-104.44,44.52,0.102,-0.19,0,0,0.139,-0.22,0.024,0,0.163,-0.05,0,0,0.305,0.21,0,0,0.429,0.16,0,0.018,0.121,-0.23,0.006,0,0.228,-0.11,0,0
94088,20110824,-104.44,44.52,0.101,-0.2,0,0,0.138,-0.22,0.03,0,0.162,-0.05,0,0,0.305,0.22,0,0,0.429,0.17,0,0.036,0.119,-0.24,0.006,0,0.227,-0.1,0,0
94088,20110825,-104.44,44.52,0.099,-0.2,0,0,0.136,-0.23,0.06,0,0.161,-0.05,0,0,0.304,0.22,0,0,0.429,0.18,0,0.042,0.118,-0.24,0.006,0,0.226,-0.1,0,0
94088,20110826,-104.44,44.52,0.098,-0.21,0,0,0.135,-0.23,0.119,0,0.159,-0.05,0,0,0.303,0.22,0,0,0.429,0.18,0,0.054,0.117,-0.24,0,0,0.225,-0.09,0,0
94088,20110827,-104.44,44.52,0.096,-0.23,0,0,0.133,-0.25,0.262,0,0.158,-0.06,0,0,0.303,0.22,0,0,0.429,0.19,0,0.089,0.114,-0.26,0.137,0,0.224,-0.09,0,0
94088,20110828,-104.44,44.52,0.094,-0.25,0,0,0.131,-0.27,0.393,0,0.157,-0.06,0,0,0.302,0.22,0,0,0.429,0.2,0,0.125,0.112,-0.28,0.274,0,0.222,-0.09,0,0
94088,20110829,-104.44,44.52,0.092,-0.27,0,0,0.128,-0.29,0.53,0,0.156,-0.06,0,0,0.301,0.22,0,0,0.428,0.21,0,0.131,0.11,-0.29,0.417,0,0.221,-0.09,0,0
94088,20110830,-104.44,44.52,0.095,-0.23,0.071,0.054,0.131,-0.26,0.619,0.042,0.155,-0.07,0,0,0.301,0.22,0,0,0.428,0.21,0,0.131,0.113,-0.25,0.5,0.054,0.222,-0.06,0,0.048
94088,20110831,-104.44,44.52,0.107,-0.06,0.071,0.196,0.149,-0.07,0.613,0.185,0.154,-0.08,0,0,0.3,0.22,0,0,0.428,0.22,0,0.137,0.128,-0.07,0.5,0.196,0.227,0.04,0,0.19
94088,20110901,-104.44,44.52,0.117,0.07,0.071,0.339,0.165,0.09,0.583,0.327,0.153,-0.07,0,0,0.299,0.22,0,0,0.428,0.23,0,0.167,0.141,0.09,0.5,0.339,0.233,0.13,0,0.333
94088,20110902,-104.44,44.52,0.125,0.17,0.071,0.464,0.18,0.23,0.518,0.47,0.153,-0.07,0,0,0.299,0.22,0,0,0.428,0.24,0,0.214,0.152,0.22,0.5,0.482,0.237,0.2,0,0.476
94088,20110903,-104.44,44.52,0.132,0.26,0.071,0.464,0.194,0.36,0.375,0.613,0.153,-0.06,0,0,0.299,0.23,0,0,0.428,0.25,0,0.292,0.163,0.34,0.363,0.613,0.241,0.27,0,0.512
94088,20110904,-104.44,44.52,0.139,0.34,0.071,0.464,0.206,0.47,0.232,0.72,0.154,-0.04,0,0,0.298,0.23,0,0,0.428,0.27,0,0.387,0.173,0.43,0.226,0.613,0.245,0.33,0,0.512
94088,20110905,-104.44,44.52,0.146,0.42,0.071,0.464,0.217,0.57,0.089,0.72,0.155,-0.03,0,0,0.298,0.24,0,0,0.428,0.28,0,0.506,0.181,0.52,0.083,0.613,0.249,0.39,0,0.512
94088,20110906,-104.44,44.52,0.147,0.42,0,0.411,0.22,0.6,0,0.679,0.156,-0.02,0,0,0.297,0.25,0,0,0.428,0.3,0,0.631,0.184,0.52,0,0.56,0.25,0.4,0,0.464
94088,20110907,-104.44,44.52,0.138,0.28,0,0.268,0.207,0.45,0,0.536,0.156,0,0,0,0.297,0.26,0,0,0.427,0.31,0,0.75,0.172,0.36,0,0.417,0.245,0.34,0,0.321
94088,20110908,-104.44,44.52,0.13,0.17,0,0.125,0.193,0.31,0,0.393,0.157,0,0,0,0.297,0.27,0,0,0.427,0.33,0,0.851,0.162,0.22,0,0.274,0.241,0.27,0,0.179
94088,20110909,-104.44,44.52,0.124,0.08,0,0,0.181,0.19,0,0.25,0.157,0.01,0,0,0.296,0.28,0,0,0.426,0.34,0,0.935,0.152,0.11,0,0.131,0.237,0.22,0,0.036
94088,20110910,-104.44,44.52,0.117,-0.01,0,0,0.168,0.07,0.024,0.107,0.157,0.01,0,0,0.295,0.28,0,0,0.426,0.35,0,0.964,0.143,0,0,0,0.233,0.16,0,0
94088,20110911,-104.44,44.52,0.111,-0.1,0.006,0,0.157,-0.04,0.131,0,0.156,0,0,0,0.295,0.29,0,0.006,0.425,0.37,0,0.97,0.134,-0.1,0.012,0,0.229,0.11,0,0
94088,20110912,-104.44,44.52,0.105,-0.18,0.06,0,0.147,-0.14,0.274,0,0.156,0,0,0,0.294,0.31,0,0.077,0.425,0.38,0,0.982,0.126,-0.19,0.137,0,0.225,0.06,0,0
94088,20110913,-104.44,44.52,0.098,-0.26,0.196,0,0.139,-0.22,0.417,0,0.155,-0.01,0,0,0.294,0.32,0,0.19,0.425,0.4,0,1,0.118,-0.26,0.28,0,0.222,0.02,0,0
94088,20110914,-104.44,44.52,0.092,-0.33,0.339,0,0.131,-0.3,0.56,0,0.154,-0.02,0,0,0.293,0.34,0,0.304,0.424,0.42,0,1,0.112,-0.33,0.423,0,0.219,-0.02,0,0
94088,20110915,-104.44,44.52,0.089,-0.37,0.458,0.018,0.127,-0.34,0.685,0.012,0.153,-0.03,0,0,0.293,0.36,0,0.363,0.424,0.44,0,1,0.108,-0.37,0.542,0.012,0.217,-0.04,0,0.012
94088,20110916,-104.44,44.52,0.101,-0.25,0.458,0.161,0.149,-0.2,0.685,0.155,0.165,0.1,0,0.137,0.293,0.37,0,0.369,0.423,0.45,0,1,0.125,-0.23,0.542,0.155,0.226,0.06,0,0.155
94088,20110917,-104.44,44.52,0.113,-0.14,0.458,0.304,0.171,-0.06,0.661,0.298,0.179,0.26,0,0.28,0.292,0.38,0,0.369,0.422,0.46,0,1,0.142,-0.09,0.542,0.298,0.235,0.16,0,0.298
94088,20110918,-104.44,44.52,0.124,-0.03,0.452,0.446,0.192,0.08,0.554,0.44,0.193,0.42,0,0.423,0.291,0.39,0,0.363,0.421,0.47,0,1,0.158,0.04,0.53,0.44,0.244,0.26,0,0.44
94088,20110919,-104.44,44.52,0.137,0.09,0.399,0.589,0.215,0.21,0.411,0.583,0.207,0.57,0,0.565,0.291,0.39,0,0.292,0.42,0.48,0,1,0.176,0.17,0.405,0.583,0.254,0.35,0,0.583
94088,20110920,-104.44,44.52,0.15,0.2,0.262,0.661,0.236,0.35,0.268,0.726,0.22,0.71,0,0.708,0.29,0.39,0,0.179,0.42,0.49,0,1,0.193,0.3,0.262,0.726,0.263,0.45,0,0.726
94088,20110921,-104.44,44.52,0.162,0.31,0.119,0.661,0.257,0.47,0.125,0.869,0.234,0.84,0,0.851,0.289,0.38,0,0.065,0.42,0.51,0,1,0.21,0.43,0.119,0.827,0.272,0.54,0,0.869
94088,20110922,-104.44,44.52,0.172,0.39,0,0.643,0.276,0.57,0,0.946,0.248,0.95,0,0.994,0.288,0.37,0,0.006,0.42,0.52,0,1,0.224,0.52,0,0.815,0.281,0.61,0,1
94088,20110923,-104.44,44.52,0.167,0.32,0,0.5,0.267,0.48,0,0.804,0.248,0.9,0,1,0.288,0.36,0,0,0.421,0.54,0,1,0.217,0.44,0,0.673,0.278,0.55,0,0.976
94088,20110924,-104.44,44.52,0.164,0.26,0,0.357,0.26,0.4,0,0.661,0.246,0.81,0,1,0.288,0.36,0,0,0.421,0.55,0,1,0.212,0.37,0,0.53,0.276,0.49,0,0.839
94088,20110925,-104.44,44.52,0.161,0.21,0,0.214,0.252,0.31,0,0.518,0.244,0.7,0,0.875,0.288,0.35,0,0,0.42,0.55,0,1,0.207,0.28,0,0.387,0.273,0.43,0,0.696
94088,20110926,-104.44,44.52,0.157,0.13,0,0.071,0.242,0.21,0,0.375,0.24,0.59,0,0.732,0.288,0.34,0,0,0.419,0.55,0,1,0.2,0.18,0,0.244,0.269,0.35,0,0.554
94088,20110927,-104.44,44.52,0.153,0.06,0,0,0.231,0.1,0,0.232,0.236,0.48,0,0.589,0.288,0.34,0,0,0.418,0.54,0,1,0.192,0.08,0,0.101,0.265,0.27,0,0.411
94088,20110928,-104.44,44.52,0.148,-0.02,0,0,0.221,-0.01,0,0.089,0.232,0.37,0,0.446,0.288,0.33,0,0,0.417,0.53,0,1,0.184,-0.02,0,0,0.261,0.2,0,0.268
94088,20110929,-104.44,44.52,0.143,-0.09,0.024,0,0.209,-0.12,0.048,0,0.227,0.26,0,0.304,0.288,0.33,0,0,0.415,0.52,0,1,0.176,-0.12,0.06,0,0.257,0.12,0,0.125
94088,20110930,-104.44,44.52,0.137,-0.17,0.131,0,0.198,-0.24,0.19,0,0.222,0.17,0,0.161,0.288,0.32,0,0,0.414,0.51,0,1,0.168,-0.23,0.202,0,0.252,0.04,0,0.006
94088,20111001,-104.44,44.52,0.131,-0.26,0.274,0,0.187,-0.34,0.333,0,0.217,0.09,0,0.018,0.288,0.32,0,0,0.414,0.51,0,1,0.159,-0.32,0.345,0,0.247,-0.04,0,0
94088,20111002,-104.44,44.52,0.125,-0.33,0.417,0,0.176,-0.44,0.476,0,0.211,0.01,0,0,0.288,0.31,0,0,0.414,0.53,0,1,0.151,-0.41,0.488,0,0.243,-0.11,0,0
94088,20111003,-104.44,44.52,0.118,-0.4,0.56,0,0.166,-0.53,0.619,0,0.206,-0.05,0,0,0.288,0.31,0,0,0.414,0.54,0,1,0.142,-0.49,0.631,0,0.238,-0.18,0,0
94088,20111004,-104.44,44.52,0.112,-0.47,0.702,0,0.158,-0.61,0.762,0,0.2,-0.11,0,0,0.288,0.29,0,0,0.414,0.56,0,1,0.135,-0.56,0.774,0,0.234,-0.24,0,0
94088,20111005,-104.44,44.52,0.105,-0.53,0.845,0,0.15,-0.68,0.905,0,0.194,-0.17,0,0,0.288,0.26,0,0,0.414,0.58,0,1,0.128,-0.62,0.917,0,0.23,-0.3,0.048,0
94088,20111006,-104.44,44.52,0.099,-0.59,0.964,0,0.143,-0.74,1,0,0.189,-0.22,0.006,0,0.288,0.22,0,0,0.414,0.59,0,1,0.121,-0.68,1,0,0.227,-0.36,0.167,0
94088,20111007,-104.44,44.52,0.105,-0.56,0.905,0,0.146,-0.74,0.946,0,0.184,-0.27,0.006,0,0.288,0.19,0,0,0.415,0.61,0,1,0.126,-0.65,0.929,0,0.228,-0.37,0.214,0
94088,20111008,-104.44,44.52,0.119,-0.47,0.762,0,0.168,-0.61,0.804,0.054,0.186,-0.28,0.006,0,0.288,0.16,0,0,0.415,0.63,0,1,0.144,-0.54,0.786,0,0.235,-0.3,0.214,0.012
94088,20111009,-104.44,44.52,0.139,-0.33,0.619,0.089,0.196,-0.44,0.661,0.196,0.199,-0.19,0.006,0.101,0.288,0.12,0,0,0.415,0.62,0,1,0.167,-0.38,0.643,0.089,0.247,-0.18,0.214,0.155
94088,20111010,-104.44,44.52,0.159,-0.19,0.476,0.107,0.223,-0.27,0.518,0.339,0.215,-0.08,0.006,0.244,0.288,0.09,0,0,0.416,0.61,0,1,0.191,-0.23,0.5,0.167,0.26,-0.05,0.214,0.298
94088,20111011,-104.44,44.52,0.178,-0.06,0.333,0.107,0.248,-0.11,0.375,0.381,0.231,0.02,0.006,0.375,0.289,0.08,0,0,0.416,0.6,0,1,0.213,-0.08,0.357,0.167,0.273,0.07,0.214,0.44
94088,20111012,-104.44,44.52,0.196,0.06,0.19,0.107,0.272,0.04,0.232,0.381,0.247,0.11,0.006,0.375,0.291,0.09,0,0,0.415,0.58,0,1,0.234,0.06,0.214,0.167,0.284,0.19,0.167,0.583
94088,20111013,-104.44,44.52,0.213,0.18,0.048,0.107,0.296,0.19,0.089,0.381,0.264,0.2,0,0.375,0.293,0.11,0,0,0.414,0.55,0,1,0.254,0.19,0.071,0.167,0.296,0.31,0.048,0.589
94088,20111014,-104.44,44.52,0.218,0.22,0,0.107,0.309,0.27,0,0.381,0.279,0.29,0,0.375,0.294,0.12,0,0,0.413,0.52,0,1,0.264,0.25,0,0.167,0.303,0.39,0,0.589
94088,20111015,-104.44,44.52,0.215,0.18,0,0.107,0.304,0.22,0,0.327,0.289,0.34,0,0.375,0.296,0.14,0,0.03,0.412,0.49,0,1,0.259,0.21,0,0.167,0.303,0.39,0,0.577
94088,20111016,-104.44,44.52,0.206,0.11,0,0.018,0.295,0.14,0,0.185,0.288,0.3,0,0.274,0.298,0.17,0,0.054,0.412,0.48,0,0.988,0.251,0.13,0,0.077,0.3,0.34,0,0.435
94088,20111017,-104.44,44.52,0.198,0.04,0,0,0.286,0.06,0,0.042,0.284,0.25,0,0.131,0.299,0.18,0,0.065,0.412,0.46,0,0.988,0.242,0.06,0,0,0.296,0.29,0,0.292
94088,20111018,-104.44,44.52,0.192,-0.01,0,0,0.279,0,0,0,0.28,0.2,0,0,0.299,0.18,0,0.101,0.412,0.46,0,0.988,0.235,0,0,0,0.292,0.25,0,0.149
94088,20111019,-104.44,44.52,0.187,-0.06,0,0,0.273,-0.07,0,0,0.277,0.17,0,0,0.299,0.18,0,0.101,0.412,0.45,0,0.952,0.23,-0.06,0,0,0.29,0.21,0,0.006
94088,20111020,-104.44,44.52,0.183,-0.09,0,0,0.268,-0.12,0,0,0.275,0.13,0,0,0.299,0.18,0,0.101,0.411,0.44,0,0.863,0.226,-0.1,0,0,0.287,0.18,0,0
94088,20111021,-104.44,44.52,0.18,-0.12,0,0,0.264,-0.16,0.006,0,0.272,0.1,0,0,0.298,0.17,0,0.101,0.411,0.43,0,0.839,0.222,-0.13,0,0,0.285,0.16,0,0
94088,20111022,-104.44,44.52,0.177,-0.14,0,0,0.26,-0.2,0.065,0,0.27,0.07,0,0,0.298,0.17,0,0.071,0.411,0.42,0,0.839,0.219,-0.16,0,0,0.283,0.13,0,0
94088,20111023,-104.44,44.52,0.175,-0.15,0,0,0.256,-0.24,0.202,0,0.268,0.04,0,0,0.297,0.16,0,0.048,0.411,0.42,0,0.839,0.216,-0.19,0,0,0.281,0.12,0,0
94088,20111024,-104.44,44.52,0.172,-0.17,0.012,0,0.253,-0.27,0.345,0,0.266,0,0,0,0.297,0.16,0,0.036,0.41,0.42,0,0.827,0.213,-0.22,0.036,0,0.28,0.1,0,0
94088,20111025,-104.44,44.52,0.17,-0.18,0.065,0,0.25,-0.3,0.488,0,0.264,-0.03,0,0,0.297,0.15,0,0,0.41,0.41,0,0.827,0.21,-0.24,0.155,0,0.278,0.09,0,0
94088,20111026,-104.44,44.52,0.168,-0.2,0.179,0,0.247,-0.33,0.631,0,0.263,-0.05,0,0,0.296,0.15,0,0,0.409,0.41,0,0.798,0.207,-0.26,0.298,0,0.277,0.08,0,0
94088,20111027,-104.44,44.52,0.166,-0.21,0.25,0,0.244,-0.36,0.774,0,0.261,-0.08,0,0,0.296,0.15,0,0,0.409,0.41,0,0.744,0.205,-0.28,0.44,0,0.275,0.07,0,0
94088,20111028,-104.44,44.52,0.164,-0.22,0.351,0,0.241,-0.39,0.911,0,0.26,-0.11,0,0,0.296,0.15,0,0,0.408,0.4,0,0.625,0.202,-0.3,0.583,0,0.274,0.05,0,0
94088,20111029,-104.44,44.52,0.162,-0.23,0.476,0,0.238,-0.41,0.994,0,0.258,-0.13,0,0,0.295,0.15,0,0,0.408,0.39,0,0.494,0.2,-0.31,0.726,0,0.272,0.05,0,0
94088,20111030,-104.44,44.52,0.161,-0.23,0.613,0,0.236,-0.43,1,0,0.256,-0.15,0,0,0.295,0.15,0,0.006,0.408,0.39,0,0.387,0.198,-0.32,0.869,0,0.271,0.04,0,0
94088,20111031,-104.44,44.52,0.159,-0.24,0.726,0,0.233,-0.45,1,0,0.255,-0.17,0,0,0.294,0.16,0,0.018,0.408,0.38,0,0.256,0.196,-0.34,0.976,0,0.27,0.03,0,0
94088,20111101,-104.44,44.52,0.158,-0.25,0.798,0,0.231,-0.47,1,0,0.254,-0.18,0,0,0.294,0.16,0,0.018,0.406,0.36,0,0.113,0.194,-0.35,1,0,0.269,0.02,0,0
94088,20111102,-104.44,44.52,0.156,-0.25,0.827,0,0.229,-0.48,1,0,0.253,-0.19,0,0,0.294,0.17,0,0.024,0.406,0.35,0,0.036,0.193,-0.36,1,0,0.267,0.02,0,0
94088,20111103,-104.44,44.52,0.155,-0.26,0.893,0,0.228,-0.49,1,0,0.251,-0.2,0,0,0.293,0.18,0,0.06,0.406,0.34,0,0.036,0.191,-0.36,1,0,0.267,0.01,0,0
94088,20111104,-104.44,44.52,0.154,-0.27,0.929,0,0.226,-0.5,1,0,0.25,-0.21,0,0,0.293,0.19,0,0.06,0.406,0.33,0,0.036,0.19,-0.37,1,0,0.266,0.01,0,0
94088,20111105,-104.44,44.52,0.152,-0.28,0.946,0,0.225,-0.51,1,0,0.249,-0.22,0,0,0.292,0.19,0,0.06,0.406,0.32,0,0.024,0.188,-0.38,1,0,0.265,0,0,0
94088,20111106,-104.44,44.52,0.151,-0.29,0.952,0,0.223,-0.52,1,0,0.248,-0.23,0,0,0.292,0.19,0,0.054,0.405,0.31,0,0,0.187,-0.39,1,0,0.264,-0.01,0,0
94088,20111107,-104.44,44.52,0.151,-0.29,0.94,0,0.222,-0.53,1,0,0.248,-0.23,0,0,0.292,0.19,0,0.065,0.404,0.3,0,0,0.186,-0.39,0.97,0,0.263,-0.01,0,0
94088,20111108,-104.44,44.52,0.152,-0.28,0.909,0,0.22,-0.55,1,0,0.246,-0.24,0.024,0,0.291,0.19,0,0.077,0.404,0.3,0,0,0.186,-0.4,0.921,0,0.263,-0.02,0,0
94088,20111109,-104.44,44.52,0.153,-0.28,0.863,0,0.219,-0.55,1,0,0.246,-0.26,0.036,0,0.291,0.19,0,0.071,0.404,0.3,0,0,0.186,-0.39,0.875,0,0.262,-0.02,0,0
94088,20111110,-104.44,44.52,0.155,-0.27,0.783,0,0.219,-0.54,1,0,0.245,-0.27,0.119,0,0.29,0.18,0,0.036,0.403,0.3,0,0,0.187,-0.38,0.79,0,0.262,-0.02,0,0
94088,20111111,-104.44,44.52,0.154,-0.28,0.78,0,0.219,-0.53,1,0,0.244,-0.28,0.244,0,0.289,0.18,0,0.036,0.403,0.3,0,0,0.186,-0.39,0.78,0,0.262,-0.02,0,0
94088,20111112,-104.44,44.52,0.154,-0.29,0.773,0,0.217,-0.53,1,0,0.243,-0.28,0.327,0,0.289,0.18,0,0.036,0.402,0.29,0,0,0.185,-0.4,0.78,0,0.261,-0.03,0,0
94088,20111113,-104.44,44.52,0.153,-0.3,0.773,0,0.216,-0.52,1,0,0.242,-0.29,0.47,0,0.289,0.18,0,0.036,0.401,0.29,0,0,0.184,-0.41,0.78,0,0.26,-0.03,0,0
94088,20111114,-104.44,44.52,0.151,-0.33,0.807,0,0.215,-0.5,1,0,0.242,-0.29,0.613,0,0.288,0.17,0,0.012,0.401,0.29,0,0,0.183,-0.42,0.813,0,0.259,-0.04,0,0
94088,20111115,-104.44,44.52,0.148,-0.36,0.864,0,0.215,-0.47,1,0,0.241,-0.3,0.732,0,0.288,0.17,0,0,0.401,0.29,0,0,0.181,-0.44,0.87,0,0.259,-0.05,0,0
94088,20111116,-104.44,44.52,0.146,-0.4,0.911,0,0.213,-0.46,1,0,0.241,-0.3,0.839,0,0.288,0.17,0,0,0.401,0.29,0,0,0.179,-0.45,0.918,0,0.258,-0.06,0,0
94088,20111117,-104.44,44.52,0.143,-0.44,0.988,0,0.212,-0.46,1,0,0.24,-0.3,0.833,0,0.288,0.17,0,0,0.401,0.3,0,0,0.177,-0.47,0.994,0,0.257,-0.07,0,0
94088,20111118,-104.44,44.52,0.146,-0.44,0.923,0,0.21,-0.45,1,0,0.24,-0.3,0.786,0,0.288,0.17,0,0,0.4,0.29,0,0,0.178,-0.47,0.929,0,0.257,-0.07,0,0
94088,20111119,-104.44,44.52,0.146,-0.47,0.911,0,0.21,-0.44,1,0,0.239,-0.3,0.81,0,0.287,0.17,0,0,0.4,0.3,0,0,0.178,-0.47,0.929,0,0.257,-0.07,0,0
94088,20111120,-104.44,44.52,0.147,-0.49,0.911,0,0.21,-0.44,1,0,0.239,-0.3,0.708,0,0.287,0.17,0,0,0.399,0.3,0,0,0.178,-0.48,0.929,0,0.257,-0.07,0,0
94088,20111121,-104.44,44.52,0.148,-0.52,0.911,0,0.209,-0.43,1,0,0.239,-0.3,0.601,0,0.287,0.17,0,0,0.399,0.3,0,0,0.178,-0.49,0.929,0,0.256,-0.07,0,0
94088,20111122,-104.44,44.52,0.148,-0.54,0.911,0,0.209,-0.43,1,0,0.238,-0.29,0.464,0,0.287,0.17,0,0,0.399,0.3,0,0,0.179,-0.5,0.929,0,0.256,-0.07,0,0
94088,20111123,-104.44,44.52,0.148,-0.56,0.911,0,0.208,-0.43,1,0,0.238,-0.28,0.345,0,0.287,0.18,0,0,0.399,0.31,0,0,0.178,-0.52,0.929,0,0.256,-0.07,0.006,0
94088,20111124,-104.44,44.52,0.147,-0.59,0.917,0,0.208,-0.43,1,0,0.238,-0.27,0.268,0,0.287,0.18,0,0,0.398,0.31,0,0,0.178,-0.53,0.935,0,0.256,-0.08,0.024,0
94088,20111125,-104.44,44.52,0.146,-0.62,0.982,0,0.209,-0.43,0.982,0,0.237,-0.25,0.19,0,0.287,0.18,0,0.006,0.399,0.31,0,0.006,0.177,-0.55,1,0,0.255,-0.08,0.024,0
94088,20111126,-104.44,44.52,0.147,-0.63,1,0,0.212,-0.4,0.839,0,0.238,-0.22,0.083,0,0.287,0.19,0,0.006,0.399,0.32,0,0.006,0.179,-0.53,0.958,0,0.256,-0.07,0.024,0
94088,20111127,-104.44,44.52,0.149,-0.64,1,0,0.217,-0.35,0.696,0,0.238,-0.2,0.042,0,0.287,0.19,0,0.018,0.399,0.32,0,0.012,0.183,-0.51,0.815,0,0.258,-0.06,0.024,0
94088,20111128,-104.44,44.52,0.151,-0.64,1,0,0.222,-0.3,0.554,0,0.238,-0.17,0.006,0,0.287,0.19,0,0.036,0.399,0.33,0,0.012,0.186,-0.48,0.673,0,0.259,-0.04,0.024,0
94088,20111129,-104.44,44.52,0.153,-0.64,1,0,0.228,-0.25,0.411,0,0.239,-0.14,0,0,0.287,0.2,0,0.071,0.399,0.33,0,0.012,0.19,-0.44,0.53,0,0.261,-0.03,0.024,0
94088,20111130,-104.44,44.52,0.156,-0.64,1,0,0.233,-0.2,0.268,0,0.24,-0.11,0,0,0.286,0.2,0,0.071,0.398,0.33,0,0.012,0.194,-0.41,0.387,0,0.263,-0.02,0.018,0
94088,20111201,-104.44,44.52,0.158,-0.66,1,0,0.239,-0.16,0.125,0,0.24,-0.09,0,0,0.286,0.2,0,0.077,0.397,0.33,0,0.012,0.199,-0.38,0.274,0,0.264,-0.01,0,0
94088,20111202,-104.44,44.52,0.16,-0.68,1,0,0.243,-0.11,0,0,0.241,-0.07,0,0,0.286,0.2,0,0.101,0.397,0.32,0,0.006,0.202,-0.36,0.256,0,0.265,0,0,0
94088,20111203,-104.44,44.52,0.164,-0.67,0.958,0,0.245,-0.1,0,0,0.242,-0.06,0,0,0.286,0.21,0,0.143,0.396,0.32,0,0.006,0.204,-0.34,0.22,0,0.267,0.02,0,0.042
94088,20111204,-104.44,44.52,0.17,-0.62,0.851,0,0.246,-0.1,0,0,0.242,-0.05,0,0,0.285,0.2,0,0.137,0.396,0.33,0,0.018,0.208,-0.31,0.23,0,0.268,0.06,0,0.149
94088,20111205,-104.44,44.52,0.172,-0.62,0.825,0,0.245,-0.11,0.042,0,0.242,-0.04,0,0,0.285,0.2,0,0.137,0.396,0.33,0,0.036,0.209,-0.31,0.27,0,0.268,0.06,0,0.175
94088,20111206,-104.44,44.52,,,,,0.245,-0.12,0.116,0,0.242,-0.04,0,0,0.285,0.2,0,0.101,0.396,0.33,0,0.048,,,,,,,,
94088,20111207,-104.44,44.52,,,,,,,,,0.242,-0.05,0,0,0.285,0.2,0,0.101,0.396,0.33,0,0.048,,,,,,,,
94088,20111208,-104.44,44.52,,,,,,,,,0.24,-0.06,0,0,0.284,0.2,0,0.095,0.396,0.33,0,0.048,,,,,,,,
94088,20111209,-104.44,44.52,,,,,,,,,0.239,-0.08,0,0,0.284,0.19,0,0.065,0.396,0.34,0,0.048,,,,,,,,
94088,20111210,-104.44,44.52,,,,,,,,,0.238,-0.11,0.042,0,0.283,0.19,0,0.024,0.395,0.34,0,0.048,,,,,,,,
94088,20111211,-104.44,44.52,,,,,,,,,0.237,-0.13,0.167,0,0.283,0.19,0,0.018,0.395,0.34,0,0.042,,,,,,,,
94088,20111212,-104.44,44.52,,,,,,,,,0.236,-0.16,0.31,0,0.282,0.18,0,0,0.395,0.34,0,0.06,,,,,,,,
94088,20111213,-104.44,44.52,,,,,,,,,0.235,-0.19,0.452,0,0.282,0.18,0,0,0.394,0.34,0,0.065,,,,,,,,
94088,20111214,-104.44,44.52,,,,,,,,,0.234,-0.21,0.595,0,0.282,0.18,0,0,0.395,0.34,0,0.095,,,,,,,,
94088,20111215,-104.44,44.52,,,,,,,,,0.233,-0.23,0.738,0,0.281,0.18,0,0,0.395,0.34,0,0.095,,,,,,,,
94088,20111216,-104.44,44.52,,,,,,,,,0.228,-0.32,0.881,0,0.281,0.18,0,0.006,0.395,0.35,0,0.101,,,,,,,,
94088,20111217,-104.44,44.52,,,,,,,,,0.223,-0.4,0.981,0,0.281,0.18,0,0.018,0.394,0.34,0,0.101,,,,,,,,
94088,20111218,-104.44,44.52,,,,,,,,,,,,,0.281,0.17,0,0.018,0.393,0.33,0,0.089,,,,,,,,
94088,20111219,-104.44,44.52,,,,,,,,,,,,,0.281,0.16,0,0.018,0.392,0.32,0,0.054,,,,,,,,
94088,20111220,-104.44,44.52,,,,,,,,,,,,,0.281,0.15,0,0.018,0.392,0.31,0,0.036,,,,,,,,
94088,20111221,-104.44,44.52,,,,,,,,,,,,,0.281,0.15,0,0.018,0.392,0.3,0,0.006,,,,,,,,
94088,20111222,-104.44,44.52,,,,,,,,,,,,,0.281,0.14,0,0.018,0.392,0.29,0,0.006,,,,,,,,
94088,20111223,-104.44,44.52,,,,,,,,,,,,,0.281,0.13,0,0.012,0.392,0.28,0,0,,,,,,,,
94088,20111224,-104.44,44.52,,,,,,,,,,,,,0.28,0.12,0,0,0.392,0.28,0,0,,,,,,,,
94088,20111225,-104.44,44.52,,,,,,,,,,,,,0.28,0.11,0,0,0.391,0.27,0,0,,,,,,,,
94088,20111226,-104.44,44.52,,,,,,,,,,,,,0.28,0.11,0,0,0.391,0.27,0,0,,,,,,,,
94088,20111227,-104.44,44.52,,,,,,,,,,,,,0.28,0.11,0,0,0.391,0.27,0,0,,,,,,,,
94088,20111228,-104.44,44.52,,,,,,,,,,,,,0.28,0.11,0,0,0.39,0.26,0,0,,,,,,,,
94088,20111229,-104.44,44.52,,,,,,,,,,,,,0.28,0.11,0,0,0.389,0.26,0,0,,,,,,,,
94088,20111230,-104.44,44.52,,,,,,,,,,,,,0.28,0.11,0,0,0.389,0.26,0,0,,,,,,,,
94088,20111231,-104.44,44.52,,,,,,,,,,,,,0.28,0.11,0,0,0.389,0.26,0,0,,,,,,,,
94088,20120101,-104.44,44.52,,,,,,,,,,,,,0.28,0.11,0,0,0.389,0.26,0,0,,,,,,,,
94088,20120102,-104.44,44.52,,,,,,,,,,,,,0.28,0.11,0,0,0.39,0.26,0,0,,,,,,,,
94088,20120103,-104.44,44.52,,,,,,,,,,,,,0.28,0.1,0,0,0.39,0.27,0,0,,,,,,,,
94088,20120104,-104.44,44.52,,,,,,,,,,,,,0.28,0.1,0,0,0.39,0.27,0,0,,,,,,,,
94088,20120105,-104.44,44.52,,,,,,,,,,,,,0.28,0.1,0,0,0.391,0.27,0,0,,,,,,,,